Theta_e
319 317 314 314 310 307 307 307 308 312 312 311 311 309 307 307 307 306 306 305 305 305 306 307 307 307 307 308 309 310 308 309 312 312 312 311 313 315 316 316 318 319 321 322 325 329 331 338 339 342 344 342 342 342
317 314 314 312 307 307 308 312 313 314 314 312 311 309 307 307 307 307 305 305 304 304 305 306 306 307 308 307 307 308 309 309 311 313 315 313 317 319 319 316 320 322 323 324 325 327 339 336 337 337 338 340 339 339
315 314 312 307 307 310 314 315 315 315 314 312 311 309 308 307 307 307 305 305 304 303 304 305 307 308 308 307 307 308 309 309 311 310 309 311 315 318 320 321 324 323 324 325 330 328 329 334 333 330 333 336 337 339
314 312 307 307 311 315 317 317 316 316 314 313 311 310 309 308 307 308 306 305 303 303 305 307 308 309 309 308 308 307 307 309 309 308 308 310 313 314 317 318 322 325 327 331 329 332 332 331 329 329 330 335 338 340
311 307 308 311 315 317 317 317 316 315 314 313 311 310 308 308 307 307 306 305 302 303 305 306 307 309 309 308 308 307 307 309 309 309 309 311 311 313 316 317 320 324 327 328 330 327 328 329 328 329 334 337 338 343
307 308 312 316 317 317 316 317 315 315 314 312 309 307 307 308 307 306 305 305 304 302 303 307 308 310 310 309 309 308 308 308 308 308 310 310 311 313 315 318 320 320 319 321 322 325 328 328 330 333 335 337 339 341
308 311 316 317 317 316 316 316 315 314 312 310 307 306 306 307 307 306 305 306 305 304 303 306 310 311 311 309 309 308 307 309 309 310 310 310 311 313 314 315 319 318 318 322 324 325 326 327 331 334 333 335 337 337
309 313 317 317 316 315 315 316 314 313 311 310 308 307 307 306 306 306 306 305 304 303 303 307 310 311 311 311 310 309 309 309 309 310 310 311 312 313 316 315 318 318 319 322 322 323 324 325 329 331 333 334 335 337
310 314 317 316 316 315 315 316 314 312 311 310 309 308 307 307 307 306 305 305 304 304 305 306 310 312 311 313 312 311 310 311 310 311 311 313 312 317 317 318 318 318 320 321 322 322 325 325 324 329 332 330 332 336
311 315 317 316 316 315 315 315 315 314 312 311 311 311 309 307 306 306 305 305 305 305 304 305 306 309 310 313 313 313 313 313 314 312 311 314 310 311 312 314 315 317 319 321 322 322 323 324 323 325 330 328 330 336
312 315 318 316 316 315 315 315 316 317 315 315 314 313 310 307 306 305 305 306 307 308 307 308 307 310 311 312 314 313 314 317 315 316 316 315 312 310 310 311 312 314 318 319 320 322 322 323 323 323 328 328 329 333
313 315 317 316 316 315 315 316 315 317 318 316 316 312 309 308 308 307 308 304 304 313 310 311 312 311 312 314 314 314 314 311 314 313 311 315 310 310 309 309 311 314 318 320 319 320 321 322 323 323 324 328 330 331
314 316 317 316 317 315 314 315 318 319 318 318 318 319 318 319 320 321 320 321 319 311 313 313 313 313 314 313 313 313 315 317 313 315 316 313 309 308 308 311 314 317 321 321 319 320 320 322 323 321 324 327 328 329
314 316 317 316 316 315 314 314 317 318 321 324 319 319 321 319 319 321 321 321 319 317 315 314 312 312 310 313 310 314 316 316 314 312 311 310 308 308 311 313 315 318 321 322 321 321 321 323 323 323 324 325 327 329
314 315 317 316 316 315 314 317 318 320 322 320 319 322 319 317 316 316 317 318 321 318 316 314 313 312 313 312 315 316 316 315 313 313 312 308 308 308 311 312 313 315 317 319 320 320 322 323 324 324 324 325 327 327
314 315 317 316 317 316 314 318 321 323 320 319 319 319 319 318 317 316 316 316 317 320 319 319 320 319 318 315 313 313 314 315 314 313 311 310 310 310 311 312 310 310 313 313 314 315 316 317 318 318 319 320 321 323
317 321 316 316 316 316 317 320 323 319 320 320 320 318 318 318 317 316 315 315 315 316 316 313 314 316 315 313 317 315 314 315 313 310 310 311 311 308 310 312 312 311 311 311 311 312 312 312 313 314 315 315 316 319
312 315 314 314 315 318 326 322 320 319 319 320 320 320 319 318 318 317 316 315 315 314 314 314 312 312 312 312 311 310 309 309 309 310 310 310 309 309 307 308 309 311 312 312 312 311 311 310 310 310 311 313 312 313
309 314 315 314 315 319 324 322 321 322 320 319 320 320 320 319 319 318 317 316 316 314 313 313 312 313 313 311 310 309 309 309 309 309 309 307 307 308 306 307 307 309 309 311 310 311 311 312 312 311 311 310 310 309
308 315 315 314 316 323 325 324 323 324 322 319 321 320 321 320 320 319 318 317 316 315 315 315 314 313 312 311 310 309 308 308 307 307 307 307 307 307 306 306 306 307 308 309 310 310 310 309 309 310 312 312 313 310
315 323 317 318 326 326 324 323 323 323 320 323 322 320 321 321 321 320 319 318 317 316 316 315 315 316 314 313 312 311 310 308 307 306 306 306 306 306 306 305 305 305 305 305 305 306 307 307 307 308 309 309 309 308
318 319 318 326 326 326 324 322 322 322 323 322 324 322 321 322 321 321 320 319 318 317 316 315 314 315 315 313 313 312 311 310 308 306 305 306 306 306 305 305 304 303 303 303 303 303 303 304 304 305 306 306 306 306
313 320 321 322 324 324 322 322 322 324 325 324 324 324 323 322 321 322 322 320 320 318 318 318 317 314 315 315 314 312 310 309 308 307 305 305 305 305 304 304 303 302 301 302 301 301 301 301 301 302 304 304 303 303
320 322 324 322 322 321 322 323 323 323 323 323 324 324 324 323 322 322 323 321 321 320 320 319 318 317 317 316 315 313 312 309 309 308 306 305 304 304 303 303 303 301 300 301 300 300 300 300 300 300 301 301 301 300
324 321 323 319 321 323 323 323 323 324 325 324 324 323 324 322 325 323 322 320 321 320 320 319 317 316 313 312 313 313 310 308 307 306 305 305 304 303 302 302 302 301 299 300 299 299 298 299 299 299 299 299 298 299
317 321 321 322 322 323 323 324 324 324 324 324 322 323 322 324 324 321 315 320 320 320 319 316 315 314 314 313 312 311 309 308 307 305 305 304 303 302 301 301 301 299 299 299 298 298 297 298 298 298 298 299 298 299
319 321 323 322 322 323 323 323 323 324 324 323 323 324 324 323 324 323 320 322 321 320 317 315 314 313 312 312 311 310 308 307 306 304 304 303 302 301 300 300 299 298 298 298 297 297 296 297 297 297 298 298 298 298
318 320 321 323 323 322 322 323 324 326 324 322 323 324 325 324 326 322 323 322 321 319 317 316 314 312 311 310 308 306 305 304 304 303 303 302 301 300 299 299 299 298 298 297 296 296 296 296 296 296 296 296 296 297
318 318 320 322 324 324 323 323 322 323 322 322 323 324 325 324 323 322 321 321 319 318 317 316 315 312 310 308 306 304 303 302 302 302 302 301 300 299 299 298 298 297 297 297 296 296 296 296 296 296 296 296 296 296
318 319 321 321 324 324 323 322 323 323 323 321 321 321 322 320 322 321 321 321 320 319 317 316 316 314 311 309 308 305 303 302 300 300 300 299 299 298 298 297 297 297 297 297 297 296 296 296 296 296 295 295 295 295
320 319 321 323 323 323 322 323 324 322 321 322 323 322 323 325 325 324 323 323 322 319 318 317 316 313 310 308 305 305 303 301 299 298 298 298 298 298 297 297 297 297 297 297 297 296 296 296 296 296 295 295 295 295
319 320 322 324 324 323 322 323 322 321 322 323 323 323 323 324 324 319 321 323 321 319 317 317 314 309 305 303 301 301 300 299 297 296 296 296 296 297 297 297 297 297 297 297 297 297 297 297 297 297 296 296 296 296
320 322 322 323 322 322 323 322 322 322 322 324 324 324 323 323 326 326 323 321 320 319 318 314 309 306 304 302 300 299 297 297 296 296 296 295 295 295 296 297 297 297 297 298 297 297 297 297 297 297 297 297 296 296
Wind_Speed
13 15 17 22 25 28 31 31 29 24 21 13 11 10 8 8 11 19 14 12 14 7 16 13 15 18 17 14 7 5 4 6 13 6 10 11 10 18 22 25 24 17 14 13 15 12 15 21 9 3 11 20 21 22
15 17 21 24 28 30 31 28 23 22 21 13 9 9 8 6 9 16 16 10 11 14 11 13 13 15 15 14 16 5 6 1 5 4 5 4 5 12 17 14 24 19 16 13 14 14 14 21 17 17 17 16 19 18
16 20 24 27 30 29 28 26 24 25 18 10 7 7 6 8 8 14 17 8 9 10 17 14 10 6 12 15 15 8 4 4 4 6 4 3 8 12 10 5 13 3 12 17 12 18 22 18 18 17 16 17 16 17
19 22 26 28 27 26 27 27 26 22 12 7 4 4 5 6 7 14 16 10 8 2 4 6 4 4 3 8 12 18 14 1 1 3 1 4 7 8 6 6 7 9 14 8 16 13 10 17 17 15 14 14 17 17
21 25 27 26 25 26 28 28 24 16 9 6 3 2 5 2 5 13 17 12 7 5 4 11 18 9 12 10 10 13 16 10 3 5 2 4 10 6 8 9 2 9 8 5 4 15 13 13 16 15 14 16 18 19
24 26 25 24 25 26 27 26 19 13 9 7 7 6 6 4 6 17 3 10 14 7 3 4 9 5 3 12 13 11 12 11 6 4 10 8 9 3 5 4 8 15 17 14 8 20 14 9 13 14 16 16 19 20
25 24 22 24 24 25 28 23 15 12 9 8 9 9 10 10 8 4 2 2 2 13 2 5 5 2 8 4 16 14 12 10 8 5 8 16 13 3 5 9 8 8 18 9 19 19 16 20 24 25 26 16 18 21
24 21 21 24 23 25 27 19 12 10 9 8 9 10 11 10 7 6 4 7 8 5 2 3 4 5 2 5 7 16 11 15 9 7 9 9 13 6 5 10 10 9 10 14 20 24 16 14 20 24 26 19 19 22
23 20 21 22 23 23 25 17 12 10 9 9 10 9 10 6 4 6 8 7 4 2 2 3 4 4 2 6 5 3 10 5 7 7 6 3 1 4 13 18 19 12 9 12 13 17 16 19 27 25 24 18 18 17
22 18 20 20 23 21 24 17 13 12 10 9 5 4 4 3 8 7 3 1 2 2 1 2 4 4 10 8 4 2 6 5 4 5 6 5 2 12 23 21 21 18 17 13 13 18 23 21 21 26 22 18 18 16
20 16 18 19 22 21 23 19 10 10 8 5 3 2 3 8 2 2 1 2 2 2 4 4 5 6 6 4 2 5 3 3 4 2 3 3 4 14 28 30 27 22 14 11 11 11 14 15 17 20 22 27 16 17
18 13 16 17 20 20 21 19 10 8 4 3 2 3 7 5 3 3 1 1 2 2 3 4 5 8 7 6 3 3 3 5 4 3 3 2 2 26 29 33 30 20 18 16 11 12 11 13 16 17 23 25 21 17
16 11 13 16 18 16 18 19 17 14 8 4 2 6 8 7 3 5 6 3 2 6 5 4 4 5 2 4 3 4 4 3 10 2 2 4 23 35 36 35 27 17 15 14 13 11 10 11 14 16 18 20 23 19
14 9 10 14 15 14 13 15 17 17 7 5 1 6 6 4 6 6 6 4 4 3 3 3 1 4 5 4 2 4 4 3 5 6 6 8 27 35 35 30 26 17 11 7 6 9 10 11 13 15 14 17 18 17
13 8 8 11 15 12 9 10 13 16 5 5 7 4 5 13 18 19 16 12 7 8 8 3 2 2 1 2 4 4 6 5 3 2 4 15 20 27 33 36 37 29 21 19 17 19 17 13 12 13 14 13 15 17
13 7 7 11 14 10 8 7 10 9 4 6 8 10 17 15 17 21 22 21 12 2 6 3 2 1 4 3 4 5 5 4 4 2 6 12 14 24 24 25 33 35 29 33 30 27 24 22 21 18 13 13 14 12
8 4 12 11 11 10 8 8 5 4 3 3 6 14 13 16 15 17 17 19 22 18 11 14 8 6 3 4 3 2 4 4 6 10 12 13 15 22 23 14 16 23 29 28 27 31 32 29 27 23 23 22 20 16
10 13 11 9 11 10 5 5 4 4 3 4 6 7 12 10 13 11 14 15 18 23 18 11 17 13 7 13 10 9 13 12 10 8 9 12 13 15 19 21 18 17 20 19 17 22 27 28 28 28 27 25 24 24
15 11 8 8 9 9 4 1 3 5 5 3 2 4 4 8 7 9 10 11 15 17 16 10 4 9 8 11 13 12 12 12 13 10 9 13 12 13 19 19 19 17 18 13 17 14 15 14 15 19 19 22 22 24
14 10 8 6 7 3 4 3 3 5 6 3 5 4 2 5 5 7 8 11 11 12 7 3 6 12 12 11 11 10 11 11 11 13 13 14 15 14 17 18 20 18 17 19 19 19 19 17 24 25 15 17 16 21
7 5 6 6 4 3 5 6 2 7 6 5 6 2 5 5 1 3 7 8 9 12 10 7 3 5 6 7 10 9 9 10 12 11 12 13 14 15 15 17 18 17 18 18 19 20 19 18 17 17 20 18 16 18
4 6 6 6 4 5 5 6 6 7 2 8 14 2 3 9 6 2 3 1 8 7 7 8 6 3 4 4 4 8 8 9 8 11 12 12 13 15 15 15 17 19 19 19 18 18 17 18 17 15 14 16 16 18
4 4 3 5 5 4 6 6 8 8 4 5 3 2 0 3 5 4 3 7 3 4 5 6 4 4 2 3 2 3 7 10 8 9 12 13 13 13 15 15 16 17 20 19 19 18 18 18 16 17 15 12 14 16
3 3 5 5 10 5 7 7 12 8 5 7 2 9 4 5 7 2 1 1 6 4 2 1 4 6 4 5 5 2 7 8 10 9 11 12 13 14 15 15 15 15 18 18 18 18 17 17 17 16 16 16 16 17
4 5 5 6 6 7 7 6 7 11 11 8 10 1 5 2 1 4 4 6 8 4 1 2 1 2 2 6 9 7 8 9 10 9 11 11 11 13 15 14 14 16 17 17 18 19 18 17 17 16 16 15 16 16
4 7 7 6 11 8 5 4 4 6 7 9 2 3 3 2 4 4 4 13 9 4 2 5 8 7 4 5 6 7 8 7 9 9 9 9 10 13 15 16 15 16 15 15 17 18 18 17 17 16 16 17 16 16
4 7 12 15 15 11 6 4 1 8 9 3 3 1 4 2 5 8 9 11 8 6 5 7 7 7 6 6 5 5 5 6 5 10 10 7 11 12 14 15 13 15 12 13 16 17 17 14 15 15 17 15 16 16
12 8 13 14 12 9 11 10 8 11 6 3 6 2 3 7 4 6 8 5 7 7 7 6 7 7 6 6 6 6 6 7 7 8 7 8 11 12 13 12 12 13 9 10 14 17 13 13 15 15 16 16 15 16
15 19 16 14 12 9 10 10 10 3 8 5 2 3 6 10 2 3 4 5 5 3 6 6 4 4 4 5 5 6 7 8 8 9 10 11 12 13 12 12 12 12 11 11 11 16 15 12 11 11 16 15 15 15
15 17 17 14 13 7 14 11 7 3 3 4 6 3 8 1 9 2 2 3 5 6 7 8 4 4 3 2 3 3 5 7 9 8 10 10 10 9 10 11 11 11 12 12 13 15 15 15 14 15 16 14 14 14
18 17 16 14 14 16 13 6 10 2 7 8 8 6 5 12 10 7 4 5 4 10 8 7 6 4 3 3 3 7 8 6 7 8 8 7 7 8 9 10 10 10 11 12 13 15 15 15 15 15 15 15 15 15
17 17 15 13 13 10 6 7 10 11 8 8 9 4 6 6 12 18 5 9 7 8 8 9 8 7 7 8 8 10 9 8 7 7 7 8 7 8 7 8 9 9 11 12 12 13 15 15 15 16 16 17 17 17
15 13 15 16 9 6 10 8 4 4 7 9 9 7 13 2 5 7 7 8 7 10 11 13 13 12 13 11 10 8 6 8 8 8 9 10 10 11 10 8 9 9 9 12 13 13 14 15 15 16 16 16 17 18
Wind_Direction
341 339 338 337 335 333 332 331 329 333 329 310 297 294 264 255 262 225 224 232 225 245 266 292 291 295 305 301 325 17 333 299 275 222 250 252 263 256 235 225 208 197 206 214 230 227 241 11 28 297 13 18 14 10
342 340 340 336 334 334 334 335 334 336 330 315 300 291 261 245 267 228 218 227 233 239 261 284 270 261 264 270 283 287 223 67 310 296 42 337 284 294 242 224 197 204 204 208 210 223 83 75 60 39 19 15 9 5
344 342 338 337 337 339 342 341 334 331 329 318 303 283 274 231 243 232 221 219 219 257 283 275 272 322 252 247 242 241 336 348 19 9 324 261 276 300 3 40 356 236 188 212 216 236 259 67 50 20 11 5 1 1
346 342 339 340 343 346 345 343 342 345 346 339 325 302 312 245 233 237 224 215 212 257 288 301 291 276 263 236 229 223 237 323 312 3 287 264 270 300 314 280 327 307 311 324 232 25 3 41 20 3 358 351 6 355
347 344 343 346 350 348 347 348 352 1 9 2 13 0 346 276 204 236 219 216 237 233 314 292 303 271 246 216 214 218 227 214 278 306 236 244 278 13 294 262 1 338 24 12 349 347 345 353 339 355 359 4 359 357
348 348 349 354 352 352 350 353 1 14 25 37 46 49 47 85 147 188 181 252 253 242 308 297 320 295 210 206 210 213 220 216 217 257 275 271 281 307 284 320 114 27 359 342 305 329 313 342 348 2 351 5 5 5
351 352 358 1 360 355 351 358 11 26 46 65 70 62 68 88 132 85 71 357 157 205 253 293 292 327 241 193 198 209 204 198 217 256 268 280 291 335 275 272 93 358 325 327 332 332 351 354 358 1 3 3 4 5
352 355 0 1 1 358 356 3 20 39 70 81 80 77 72 90 105 54 43 46 148 170 313 301 296 319 54 219 197 205 204 190 220 232 257 272 301 248 250 263 351 9 335 334 351 343 335 347 358 5 6 18 12 6
354 357 -0 4 3 0 6 15 31 58 79 93 98 101 79 52 54 71 91 78 118 335 332 299 308 308 70 266 221 282 208 184 244 229 228 267 234 274 350 349 349 338 317 315 324 327 330 9 354 353 2 13 12 10
354 356 360 4 4 5 12 20 46 61 84 78 62 63 71 84 122 103 51 138 319 307 266 252 291 276 306 359 300 323 218 187 176 257 253 212 79 308 348 339 328 323 298 308 312 335 341 340 340 339 358 9 13 21
354 356 359 3 6 11 16 19 41 40 39 36 42 70 122 172 121 77 65 353 343 252 209 249 251 283 307 320 264 264 285 197 166 112 250 55 357 325 328 332 320 306 288 289 281 301 305 314 323 333 338 350 7 16
353 354 359 5 6 12 19 19 25 47 306 279 170 117 155 194 203 138 93 234 241 250 231 250 288 280 299 325 287 17 328 357 61 95 13 15 279 338 334 325 328 310 291 279 251 265 293 309 317 325 329 342 359 12
351 349 356 1 4 10 11 14 17 7 346 354 234 215 191 182 344 352 9 100 210 192 221 235 291 314 309 359 338 338 329 347 127 148 50 17 341 335 333 336 344 326 297 273 267 273 294 311 309 318 322 337 358 4
346 340 346 357 6 14 8 359 356 348 319 252 323 13 4 313 1 24 37 354 101 172 181 143 76 15 4 336 8 303 342 316 37 20 11 350 342 341 351 3 13 10 345 307 283 303 298 309 310 318 327 333 341 353
341 323 334 350 359 6 3 359 349 333 301 28 15 335 2 26 32 11 15 33 125 134 206 188 155 137 145 351 341 343 8 49 30 344 334 343 357 0 4 19 21 28 42 53 61 51 50 43 26 10 351 352 357 357
338 323 328 345 348 350 352 326 327 324 325 52 27 12 16 23 31 24 12 17 33 162 194 236 139 214 70 69 26 14 353 29 350 47 42 359 2 9 8 33 34 34 42 55 58 54 56 56 51 42 29 18 13 9
352 330 311 321 336 338 350 333 296 316 328 91 29 19 11 25 39 36 26 18 20 22 31 24 33 52 120 38 95 151 353 322 336 56 29 14 15 12 2 8 33 40 39 46 48 45 49 52 52 47 47 44 42 47
327 309 312 311 333 343 273 319 313 307 319 48 66 46 19 21 23 36 40 33 40 31 26 49 31 52 56 31 36 30 23 16 38 53 44 25 13 15 14 7 15 21 27 27 30 40 39 36 34 37 36 37 40 41
323 322 303 303 327 336 292 280 294 271 235 46 43 72 32 28 19 7 36 44 59 48 46 35 12 39 43 32 23 26 16 14 5 29 46 36 20 28 23 13 16 24 22 30 36 33 25 19 34 38 38 34 33 32
313 311 296 291 311 296 262 197 256 282 308 8 296 356 310 15 26 356 33 34 42 42 63 59 30 45 41 32 20 31 19 8 15 9 10 19 17 21 30 21 11 18 21 11 19 33 34 25 12 20 25 33 36 36
338 322 306 305 301 258 283 295 351 322 316 340 292 287 176 265 17 12 26 20 49 51 57 65 95 84 58 40 27 19 19 14 10 17 360 6 11 11 16 16 16 18 20 17 8 13 17 11 8 8 29 27 27 38
264 310 306 273 269 230 254 251 286 306 283 325 292 168 209 211 244 150 349 0 55 69 54 61 53 90 139 36 26 24 9 351 25 11 6 2 12 10 11 14 13 13 11 11 9 6 6 8 12 2 5 15 26 22
275 330 275 241 254 253 258 256 261 254 244 243 13 300 144 242 237 109 50 8 342 106 80 89 132 111 169 211 201 38 24 350 1 11 5 0 5 10 5 8 12 10 6 5 3 2 1 359 357 358 4 0 6 5
279 227 243 235 202 236 227 220 245 257 272 281 243 261 27 310 98 137 211 144 118 91 120 305 218 212 221 263 257 159 13 354 351 16 13 1 5 7 6 3 6 7 1 359 359 359 359 359 358 360 354 2 359 350
239 231 217 242 267 238 251 229 261 258 252 308 285 148 198 286 97 210 117 182 170 111 277 157 282 319 14 54 70 75 32 4 3 4 9 3 4 3 2 1 5 10 360 360 360 358 357 358 360 359 357 1 360 348
221 218 203 231 211 214 232 216 235 266 266 280 276 244 202 201 97 174 198 263 130 115 142 31 1 3 89 38 26 9 15 12 14 4 356 2 11 6 0 360 2 0 0 3 -0 358 355 354 356 355 356 359 9 3
238 239 212 243 276 294 266 285 264 266 278 270 275 227 334 277 152 181 204 246 121 97 77 46 34 28 30 42 41 14 7 358 28 3 0 16 16 12 6 4 8 359 0 3 2 360 355 357 357 355 360 356 3 5
231 244 237 221 210 236 259 262 247 236 256 193 251 148 95 132 269 85 104 114 112 115 100 83 59 60 75 72 55 35 20 14 16 10 13 20 20 12 10 8 11 14 14 22 17 9 12 10 5 3 1 358 356 359
231 228 238 257 230 214 234 245 252 316 335 287 118 155 190 200 237 117 130 146 155 160 145 124 89 97 99 102 72 51 40 32 28 29 27 21 17 14 12 14 14 14 14 7 7 19 13 2 6 11 7 5 4 5
224 221 221 227 237 222 239 236 236 238 286 335 322 267 89 176 261 114 161 204 197 178 163 156 130 84 51 94 100 78 53 44 45 50 34 28 23 19 21 23 25 25 23 20 17 14 14 17 18 9 8 4 1 358
216 219 219 214 226 229 228 230 292 299 282 268 263 298 134 162 147 85 314 277 224 176 166 159 137 98 72 61 68 138 108 73 63 60 71 50 45 37 32 29 28 26 25 20 18 17 14 14 14 11 12 8 2 355
208 218 211 225 236 220 183 215 248 251 237 253 253 194 283 219 130 194 236 221 205 171 153 161 153 129 113 112 124 151 137 120 93 80 74 69 61 55 42 34 30 30 26 23 20 17 16 12 12 9 5 3 358 355
206 203 215 223 225 200 212 221 245 255 264 260 272 216 235 223 143 178 179 185 184 175 161 150 142 140 139 143 151 153 121 111 98 86 79 71 67 71 65 61 48 40 35 25 22 22 22 22 20 15 13 8 5 359